FENGYUN 1C DEB

Satellite information

Favourite Embed

Satellite Type and Status

DEBRISIN ORBIT

Key statistics

Satellite FENGYUN 1C DEB at a glance.

Uptime

9660

Days in orbit

Revolutions

≈ 14.1

Per day

Orbit

SSO

Sun Synchronous Orbit

Inclination

98.2

Latest

Satellite identification and parameters

Extended collection of information and parameters for FENGYUN 1C DEB.

Object identification

Identified? True

Debris? True

Object name: FENGYUN 1C DEB

International designator: 1999-025AJS

Object number (NORAD): 30528

Object ID (CCSDS): 30528

Country: PEOPLES REPUBLIC OF CHINA (PRC)

Current information (Y/N): Y

RCS size: SMALL

Orbital parameters

Period: 101.885 minutes

Inclination: 98.243 deg

SMA: 7226.029 km

Apoapsis: 952.798 km

Periapsis: 742.99 km

RAAN: 166.7103 deg

Eccentricy: 0.01451753

Argument of periapsis: 22.0701 deg

Mean anomaly: 98.0134 deg

Mean motion: 14.13361309 rev/day

Mean motion (dot): 0.00001328 rev/day2

B* drag term: 0.00065873546 1/REarth

Two-line elements (TLE)

Creation date: Oct. 20, 2025, 2:10 a.m.

Reference frame: TEME

Reference center: EARTH

Epoch: Oct. 19, 2025, 10:04 p.m. UTC

TLE line 0: 0 FENGYUN 1C DEB

TLE line 1: 1 30528U 99025AJS 25292.92000022 .00001328 00000-0 65874-3 0 9995

TLE line 2: 2 30528 98.2430 166.7103 0145175 22.0701 98.0134 14.13361309963773

Live tracking on map

Real-time ground track for satellite FENGYUN 1C DEB.

In-orbit conjunctions

A list of the most updated potential collisions computed for object FENGYUN 1C DEB.

Target Orbit TCA Probability of collision Miss distance Type
SL-14 DEB LEO 2024-11-10 04:47:43 0.0001515919 491.0 (m) DEBRIS
SOLRAD 7A LEO 2024-11-03 16:18:25 0.0008667518 136.0 (m) PAYLOAD
FENGYUN 1C DEB SSO 2024-06-17 20:18:49 0.001195877 26.0 (m) DEBRIS

Associated space launch

Chinese polar orbiting meteorological satellite

FENGYUN 1C DEB was lifted into orbit during the mission ‘Long March 4B | Feng Yun 1C’, on board a Long March 4B space rocket.

The launch took place on May 10, 1999, 1:33 a.m. from Launch Complex 7.

For more information about the launch, click the button.

Launch to space Long March 4B | Feng Yun 1C
Long March 4B | Feng Yun 1C

Agency: N/A

Status: Launch Successful

Launch date: May 10, 1999, 1:33 a.m. UTC

Rocket: Long March 4B

Launch pad: Launch Complex 7

Location: Taiyuan Satellite Launch Center, People's Republic of China

...

Latest news about this satellite

There are no fresh news available about this satellite. Check back as we update our databases every day.


Newsletter sign-up

Weekly statistics, charts and insights to help you stay on top of the space industry.